• In India
  • List of Countries
  • For 7 days
  • Water Temperature
  • Satellite Maps
  • Weather Map
  • Weather Widgets
  • user-avatar
    Login

    Hourly Weather Gold Coast

    Today, 23 October, Monday

    Time Temperature Precipitation Wind Pressure Humidity
    00:00 +16°C° 0.3 mm 2 mps 756 mmHg 89%
    01:00 +15°C° 0.3 mm 2 mps 756 mmHg 91%
    02:00 +15°C° 0.9 mm 2 mps 756 mmHg 91%
    03:00 +15°C° 0.9 mm 2 mps 756 mmHg 92%
    04:00 +15°C° 0 mm 2 mps 756 mmHg 92%
    05:00 +16°C° 0.6 mm 1 mps 756 mmHg 88%
    06:00 +19°C° 0.6 mm 1 mps 757 mmHg 84%
    07:00 +20°C° 0.6 mm 1 mps 757 mmHg 81%
    08:00 +21°C° 0.9 mm 1 mps 757 mmHg 78%
    09:00 +21°C° 0.9 mm 2 mps 757 mmHg 76%
    10:00 +23°C° 0.9 mm 2 mps 757 mmHg 73%
    11:00 +23°C° 1.2 mm 2 mps 757 mmHg 72%
    12:00 +23°C° 1.2 mm 2 mps 757 mmHg 72%
    13:00 +23°C° 1.2 mm 2 mps 757 mmHg 72%
    14:00 +23°C° 1.1 mm 2 mps 757 mmHg 74%
    15:00 +21°C° 1.1 mm 2 mps 757 mmHg 76%
    16:00 +20°C° 1.1 mm 3 mps 757 mmHg 79%
    17:00 +19°C° 0.9 mm 2 mps 758 mmHg 82%
    18:00 +18°C° 0.9 mm 2 mps 758 mmHg 85%
    19:00 +17°C° 0.9 mm 2 mps 759 mmHg 88%
    20:00 +17°C° 0.3 mm 2 mps 759 mmHg 89%
    21:00 +17°C° 0.3 mm 2 mps 760 mmHg 90%
    22:00 +16°C° 0.3 mm 2 mps 760 mmHg 91%
    23:00 +16°C° 0.5 mm 2 mps 760 mmHg 92%

    Tomorrow, 24 October, Tuesday

    Time Temperature Precipitation Wind Pressure Humidity
    00:00 +16°C° 0.5 mm 1 mps 760 mmHg 92%
    01:00 +16°C° 0.5 mm 1 mps 760 mmHg 93%
    02:00 +15°C° 0.4 mm 1 mps 760 mmHg 93%
    03:00 +15°C° 0.4 mm 1 mps 760 mmHg 94%
    04:00 +15°C° 0.4 mm 2 mps 760 mmHg 94%
    05:00 +16°C° 0.1 mm 2 mps 761 mmHg 91%
    06:00 +17°C° 0.1 mm 2 mps 761 mmHg 88%
    07:00 +18°C° 0.1 mm 2 mps 761 mmHg 85%
    08:00 +20°C° 0 mm 2 mps 761 mmHg 74%
    09:00 +24°C° 0 mm 2 mps 761 mmHg 64%
    10:00 +26°C° 0 mm 2 mps 762 mmHg 53%
    11:00 +26°C° 0 mm 2 mps 761 mmHg 53%
    12:00 +26°C° 0 mm 3 mps 761 mmHg 53%
    13:00 +26°C° 0 mm 3 mps 760 mmHg 53%
    14:00 +26°C° 0 mm 3 mps 760 mmHg 55%
    15:00 +26°C° 0 mm 3 mps 760 mmHg 57%
    16:00 +25°C° 0 mm 3 mps 759 mmHg 59%
    17:00 +22°C° 0 mm 3 mps 760 mmHg 66%
    18:00 +21°C° 0 mm 3 mps 760 mmHg 72%
    19:00 +19°C° 0 mm 3 mps 761 mmHg 79%
    20:00 +19°C° 0 mm 3 mps 761 mmHg 81%
    21:00 +18°C° 0 mm 3 mps 761 mmHg 83%
    22:00 +18°C° 0 mm 3 mps 762 mmHg 85%
    23:00 +18°C° 0 mm 3 mps 761 mmHg 87%

    Day after tomorrow, 25 October, Wednesday

    Time Temperature Precipitation Wind Pressure Humidity
    00:00 +17°C° 0 mm 3 mps 761 mmHg 88%
    01:00 +17°C° 0 mm 3 mps 760 mmHg 90%
    02:00 +17°C° 0 mm 3 mps 760 mmHg 91%
    03:00 +16°C° 0 mm 3 mps 760 mmHg 92%
    04:00 +16°C° 0 mm 3 mps 760 mmHg 93%
    05:00 +17°C° 0 mm 3 mps 760 mmHg 88%
    06:00 +19°C° 0 mm 3 mps 760 mmHg 83%
    07:00 +20°C° 0 mm 3 mps 761 mmHg 78%
    08:00 +22°C° 0 mm 4 mps 760 mmHg 69%
    09:00 +25°C° 0 mm 4 mps 760 mmHg 60%
    10:00 +28°C° 0 mm 4 mps 760 mmHg 51%
    11:00 +29°C° 0 mm 4 mps 759 mmHg 47%
    12:00 +30°C° 0 mm 5 mps 759 mmHg 43%
    13:00 +32°C° 0 mm 5 mps 758 mmHg 39%
    14:00 +30°C° 0 mm 5 mps 757 mmHg 43%
    15:00 +29°C° 0 mm 6 mps 757 mmHg 46%
    16:00 +29°C° 0 mm 6 mps 756 mmHg 49%
    17:00 +27°C° 0 mm 6 mps 757 mmHg 59%
    18:00 +23°C° 0 mm 6 mps 757 mmHg 68%
    19:00 +21°C° 0 mm 6 mps 757 mmHg 77%
    20:00 +21°C° 0 mm 6 mps 757 mmHg 79%
    21:00 +21°C° 0 mm 6 mps 757 mmHg 82%
    22:00 +20°C° 0 mm 6 mps 757 mmHg 84%
    23:00 +20°C° 0 mm 6 mps 757 mmHg 85%

    26 October, Thursday

    Time Temperature Precipitation Wind Pressure Humidity
    00:00 +20°C° 0 mm 6 mps 756 mmHg 85%
    01:00 +19°C° 0 mm 6 mps 756 mmHg 86%
    02:00 +19°C° 0 mm 6 mps 755 mmHg 86%
    03:00 +19°C° 0 mm 6 mps 755 mmHg 87%
    04:00 +17°C° 0 mm 5 mps 755 mmHg 88%
    05:00 +20°C° 0 mm 6 mps 755 mmHg 83%
    06:00 +21°C° 0 mm 6 mps 755 mmHg 78%
    07:00 +22°C° 0 mm 6 mps 755 mmHg 72%
    08:00 +24°C° 0 mm 6 mps 755 mmHg 65%
    09:00 +28°C° 0 mm 6 mps 754 mmHg 58%
    10:00 +30°C° 0 mm 7 mps 754 mmHg 50%
    11:00 +33°C° 0 mm 7 mps 753 mmHg 44%
    12:00 +34°C° 0 mm 7 mps 753 mmHg 38%
    13:00 +36°C° 0 mm 7 mps 752 mmHg 33%
    14:00 +34°C° 0.2 mm 7 mps 751 mmHg 42%
    15:00 +32°C° 0.2 mm 6 mps 751 mmHg 51%
    16:00 +29°C° 0.2 mm 5 mps 750 mmHg 60%
    17:00 +28°C° 0 mm 6 mps 750 mmHg 62%
    18:00 +26°C° 0 mm 6 mps 751 mmHg 64%
    19:00 +24°C° 0 mm 6 mps 751 mmHg 65%
    20:00 +23°C° 0 mm 6 mps 752 mmHg 66%
    21:00 +22°C° 0 mm 6 mps 752 mmHg 66%
    22:00 +21°C° 0 mm 6 mps 753 mmHg 66%
    23:00 +20°C° 0.1 mm 5 mps 752 mmHg 66%

    27 October, Friday

    Time Temperature Precipitation Wind Pressure Humidity
    00:00 +20°C° 0.1 mm 5 mps 752 mmHg 65%
    01:00 +19°C° 0.1 mm 4 mps 752 mmHg 64%
    02:00 +19°C° 0 mm 4 mps 752 mmHg 62%
    03:00 +18°C° 0 mm 3 mps 752 mmHg 60%
    04:00 +18°C° 0 mm 3 mps 753 mmHg 57%
    05:00 +19°C° 0 mm 3 mps 753 mmHg 56%
    06:00 +20°C° 0 mm 3 mps 754 mmHg 55%
    07:00 +22°C° 0 mm 3 mps 754 mmHg 54%
    08:00 +25°C° 0 mm 4 mps 754 mmHg 49%
    09:00 +27°C° 0 mm 4 mps 755 mmHg 45%
    10:00 +30°C° 0 mm 4 mps 755 mmHg 40%
    11:00 +32°C° 0 mm 4 mps 754 mmHg 38%
    12:00 +32°C° 0 mm 4 mps 754 mmHg 37%
    13:00 +33°C° 0 mm 5 mps 754 mmHg 35%
    14:00 +32°C° 0 mm 5 mps 754 mmHg 42%
    15:00 +29°C° 0 mm 6 mps 754 mmHg 48%
    16:00 +28°C° 0 mm 6 mps 753 mmHg 54%
    17:00 +26°C° 0 mm 5 mps 754 mmHg 64%
    18:00 +23°C° 0 mm 4 mps 755 mmHg 73%
    19:00 +20°C° 0 mm 3 mps 756 mmHg 83%
    20:00 +20°C° 0 mm 3 mps 756 mmHg 86%
    21:00 +19°C° 0 mm 2 mps 757 mmHg 88%
    22:00 +19°C° 0 mm 2 mps 757 mmHg 91%
    23:00 +19°C° 0 mm 2 mps 757 mmHg 92%

    28 October, Saturday

    Time Temperature Precipitation Wind Pressure Humidity
    00:00 +19°C° 0 mm 1 mps 757 mmHg 93%
    01:00 +19°C° 0 mm 1 mps 757 mmHg 94%
    02:00 +19°C° 0 mm 1 mps 757 mmHg 94%
    03:00 +19°C° 0 mm 1 mps 757 mmHg 95%
    04:00 +18°C° 0 mm 1 mps 757 mmHg 96%
    05:00 +20°C° 0 mm 1 mps 757 mmHg 90%
    06:00 +21°C° 0 mm 1 mps 758 mmHg 85%
    07:00 +21°C° 0 mm 0 mps 758 mmHg 80%
    08:00 +25°C° 0 mm 1 mps 758 mmHg 71%
    09:00 +27°C° 0 mm 2 mps 758 mmHg 63%
    10:00 +29°C° 0 mm 2 mps 757 mmHg 55%
    11:00 +30°C° 0 mm 3 mps 757 mmHg 52%
    12:00 +30°C° 0 mm 3 mps 756 mmHg 50%
    13:00 +32°C° 0 mm 4 mps 756 mmHg 47%
    14:00 +32°C° 0 mm 4 mps 755 mmHg 50%
    15:00 +30°C° 0 mm 5 mps 755 mmHg 54%
    16:00 +29°C° 0 mm 5 mps 755 mmHg 57%
    17:00 +28°C° 0 mm 5 mps 755 mmHg 65%
    18:00 +26°C° 0 mm 5 mps 756 mmHg 74%
    19:00 +23°C° 0 mm 5 mps 756 mmHg 82%
    20:00 +22°C° 0.2 mm 5 mps 756 mmHg 86%
    21:00 +22°C° 0.2 mm 5 mps 757 mmHg 89%
    22:00 +22°C° 0.2 mm 4 mps 757 mmHg 92%
    23:00 +22°C° 0.2 mm 4 mps 757 mmHg 93%

    29 October, Sunday

    Time Temperature Precipitation Wind Pressure Humidity
    00:00 +22°C° 0.2 mm 4 mps 756 mmHg 94%
    01:00 +22°C° 0.2 mm 4 mps 756 mmHg 95%
    02:00 +22°C° 0 mm 4 mps 756 mmHg 95%
    03:00 +22°C° 0 mm 4 mps 756 mmHg 95%
    04:00 +22°C° 0 mm 4 mps 756 mmHg 94%
    05:00 +23°C° 0 mm 5 mps 757 mmHg 91%
    06:00 +23°C° 0 mm 5 mps 757 mmHg 87%
    07:00 +25°C° 0 mm 5 mps 757 mmHg 83%
    08:00 +27°C° 0 mm 4 mps 757 mmHg 74%
    09:00 +29°C° 0 mm 4 mps 757 mmHg 64%
    10:00 +32°C° 0 mm 4 mps 756 mmHg 54%
    11:00 +34°C° 0 mm 5 mps 756 mmHg 50%
    12:00 +35°C° 0 mm 5 mps 755 mmHg 46%
    13:00 +36°C° 0 mm 5 mps 754 mmHg 42%
    14:00 +35°C° 0 mm 6 mps 754 mmHg 47%
    15:00 +34°C° 0 mm 6 mps 754 mmHg 53%
    16:00 +32°C° 0 mm 6 mps 754 mmHg 58%
    17:00 +29°C° 0 mm 6 mps 754 mmHg 68%
    18:00 +27°C° 0 mm 5 mps 754 mmHg 78%
    19:00 +25°C° 0 mm 5 mps 755 mmHg 88%
    20:00 +25°C° 0 mm 5 mps 755 mmHg 89%
    21:00 +25°C° 0 mm 4 mps 756 mmHg 90%
    22:00 +23°C° 0 mm 4 mps 756 mmHg 91%
    23:00 +23°C° 0 mm 4 mps 756 mmHg 92%
    Show more